| time (UTC) | temp F | wind direction | speed MPH | gust MPH | rain 1hr in | rain 24hr in | rain mn in | humidity % | barometer mb |
| 20260905162203 | 66 | 272 | 12.0 | 23.0 | 0.00 | 0.02 | 0.02 | 63 | 1021.3 |
| 20260905161203 | 67 | 268 | 13.0 | 20.0 | 0.00 | 0.02 | 0.02 | 62 | 1021.1 |
| 20260905160703 | 67 | 260 | 9.0 | 20.0 | 0.00 | 0.02 | 0.02 | 64 | 1021.0 |
| 20260905160203 | 67 | 270 | 9.0 | 20.0 | 0.00 | 0.02 | 0.02 | 64 | 1021.0 |
| 20260905155703 | 67 | 268 | 10.0 | 20.0 | 0.00 | 0.02 | 0.02 | 62 | 1020.8 |
| 20260905155203 | 68 | 265 | 7.0 | 18.0 | 0.00 | 0.02 | 0.02 | 65 | 1020.8 |
| 20260905154702 | 67 | 294 | 10.0 | 18.0 | 0.00 | 0.02 | 0.02 | 66 | 1020.8 |
| 20260905153703 | 68 | 271 | 9.0 | 18.0 | 0.00 | 0.02 | 0.02 | 64 | 1020.7 |
| 20260905153203 | 68 | 288 | 13.0 | 21.0 | 0.00 | 0.02 | 0.02 | 64 | 1020.7 |
| 20260905152703 | 68 | 282 | 11.0 | 20.0 | 0.00 | 0.02 | 0.02 | 64 | 1020.6 |
| 20260905152203 | 67 | 284 | 10.0 | 17.0 | 0.00 | 0.02 | 0.02 | 66 | 1020.6 |
| 20260905151703 | 67 | 286 | 10.0 | 20.0 | 0.00 | 0.02 | 0.02 | 65 | 1020.5 |
| 20260905151203 | 67 | 285 | 12.0 | 22.0 | 0.00 | 0.02 | 0.02 | 65 | 1020.5 |
| 20260905150703 | 68 | 291 | 13.0 | 21.0 | 0.00 | 0.02 | 0.02 | 64 | 1020.4 |
| 20260905150204 | 69 | 274 | 7.0 | 18.0 | 0.00 | 0.02 | 0.02 | 65 | 1020.3 |
| 20260905145704 | 69 | 271 | 13.0 | 20.0 | 0.00 | 0.02 | 0.02 | 63 | 1020.3 |
| 20260905145203 | 69 | 271 | 10.0 | 25.0 | 0.00 | 0.02 | 0.02 | 64 | 1020.1 |
| 20260905144705 | 69 | 288 | 11.0 | 21.0 | 0.00 | 0.02 | 0.02 | 64 | 1020.3 |
| 20260905144203 | 68 | 289 | 12.0 | 20.0 | 0.00 | 0.02 | 0.02 | 64 | 1020.3 |
| 20260905143704 | 67 | 290 | 10.0 | 20.0 | 0.00 | 0.02 | 0.02 | 65 | 1020.2 |
| 20260905143203 | 67 | 282 | 10.0 | 26.0 | 0.00 | 0.02 | 0.02 | 65 | 1020.1 |
| 20260905142703 | 68 | 285 | 12.0 | 20.0 | 0.00 | 0.02 | 0.02 | 64 | 1020.1 |
| 20260905142204 | 69 | 294 | 10.0 | 20.0 | 0.00 | 0.02 | 0.02 | 64 | 1020.0 |
| 20260905141703 | 69 | 283 | 10.0 | 20.0 | 0.00 | 0.02 | 0.02 | 65 | 1019.8 |
| 20260905141204 | 68 | 279 | 12.0 | 18.0 | 0.00 | 0.02 | 0.02 | 66 | 1019.8 |
| 20260905140703 | 68 | 270 | 10.0 | 20.0 | 0.00 | 0.02 | 0.02 | 65 | 1019.8 |
| 20260905140203 | 69 | 284 | 12.0 | 22.0 | 0.00 | 0.02 | 0.02 | 63 | 1019.8 |
| 20260905135703 | 69 | 281 | 12.0 | 20.0 | 0.00 | 0.02 | 0.02 | 63 | 1019.7 |
| 20260905135204 | 68 | 248 | 9.0 | 20.0 | 0.00 | 0.02 | 0.02 | 68 | 1019.6 |
| 20260905134703 | 67 | 281 | 12.0 | 20.0 | 0.00 | 0.02 | 0.02 | 68 | 1019.7 |
| 20260905134204 | 67 | 284 | 12.0 | 20.0 | 0.00 | 0.02 | 0.02 | 68 | 1019.7 |
| 20260905133703 | 67 | 278 | 7.0 | 16.0 | 0.00 | 0.02 | 0.02 | 68 | 1019.5 |
| 20260905133203 | 67 | 284 | 16.0 | 23.0 | 0.00 | 0.02 | 0.02 | 66 | 1019.6 |
| 20260905131704 | 67 | 288 | 14.0 | 26.0 | 0.00 | 0.04 | 0.02 | 68 | 1019.4 |
| 20260905131204 | 67 | 276 | 8.0 | 15.0 | 0.00 | 0.08 | 0.02 | 68 | 1019.2 |
| 20260905130704 | 67 | 265 | 12.0 | 20.0 | 0.00 | 0.08 | 0.02 | 68 | 1019.2 |
| 20260905130203 | 67 | 266 | 13.0 | 25.0 | 0.00 | 0.08 | 0.02 | 67 | 1019.3 |
| 20260905125204 | 67 | 283 | 10.0 | 18.0 | 0.00 | 0.08 | 0.02 | 71 | 1019.1 |
| 20260905124703 | 68 | 258 | 13.0 | 21.0 | 0.00 | 0.08 | 0.02 | 67 | 1019.1 |
| 20260905124204 | 69 | 282 | 14.0 | 25.0 | 0.00 | 0.08 | 0.02 | 65 | 1018.9 |
| 20260905123704 | 68 | 288 | 12.0 | 21.0 | 0.00 | 0.08 | 0.02 | 67 | 1018.8 |
| 20260905122703 | 69 | 283 | 16.0 | 25.0 | 0.00 | 0.08 | 0.02 | 64 | 1018.8 |
| 20260905122204 | 69 | 284 | 11.0 | 20.0 | 0.00 | 0.09 | 0.02 | 68 | 1018.7 |
| 20260905121704 | 68 | 273 | 11.0 | 21.0 | 0.00 | 0.09 | 0.02 | 68 | 1018.5 |
| 20260905121204 | 67 | 273 | 13.0 | 22.0 | 0.00 | 0.09 | 0.02 | 67 | 1018.6 |
| 20260905120704 | 68 | 274 | 12.0 | 20.0 | 0.00 | 0.09 | 0.02 | 66 | 1018.4 |
| 20260905115704 | 68 | 265 | 14.0 | 26.0 | 0.00 | 0.09 | 0.02 | 67 | 1018.3 |
| 20260905115204 | 67 | 284 | 13.0 | 20.0 | 0.00 | 0.10 | 0.02 | 67 | 1018.2 |
| 20260905114705 | 68 | 277 | 11.0 | 24.0 | 0.00 | 0.11 | 0.02 | 66 | 1018.2 |
| 20260905114204 | 69 | 283 | 20.0 | 32.0 | 0.00 | 0.12 | 0.02 | 66 | 1018.2 |
| 20260905113204 | 67 | 281 | 13.0 | 21.0 | 0.00 | 0.13 | 0.02 | 70 | 1018.0 |
| 20260905112703 | 67 | 280 | 13.0 | 20.0 | 0.00 | 0.14 | 0.02 | 70 | 1018.0 |
| 20260905112204 | 67 | 287 | 14.0 | 25.0 | 0.00 | 0.14 | 0.02 | 68 | 1017.8 |
| 20260905111704 | 68 | 285 | 13.0 | 20.0 | 0.00 | 0.14 | 0.02 | 67 | 1017.7 |
| 20260905111203 | 68 | 258 | 14.0 | 20.0 | 0.00 | 0.15 | 0.02 | 66 | 1017.7 |
| 20260905110704 | 69 | 266 | 13.0 | 26.0 | 0.00 | 0.15 | 0.02 | 64 | 1017.6 |
| 20260905105204 | 68 | 258 | 12.0 | 24.0 | 0.00 | 0.16 | 0.02 | 68 | 1017.5 |
| 20260905104704 | 69 | 266 | 12.0 | 22.0 | 0.00 | 0.17 | 0.02 | 68 | 1017.6 |
| 20260905104205 | 69 | 271 | 9.0 | 18.0 | 0.00 | 0.17 | 0.02 | 70 | 1017.3 |
| 20260905103200 | 67 | 276 | 10.0 | 17.0 | 0.00 | 0.17 | 0.02 | 73 | 1017.2 |
| 20260905102701 | 67 | 283 | 11.0 | 20.0 | 0.00 | 0.17 | 0.02 | 73 | 1017.2 |
| 20260905102201 | 68 | 291 | 12.0 | 23.0 | 0.00 | 0.18 | 0.02 | 70 | 1017.1 |
| 20260905101701 | 68 | 281 | 10.0 | 20.0 | 0.00 | 0.18 | 0.02 | 70 | 1017.0 |
| 20260905101201 | 67 | 288 | 13.0 | 17.0 | 0.00 | 0.19 | 0.02 | 71 | 1016.9 |
| 20260905100701 | 66 | 264 | 13.0 | 22.0 | 0.00 | 0.19 | 0.02 | 72 | 1016.9 |
| 20260905100201 | 66 | 291 | 13.0 | 24.0 | 0.00 | 0.19 | 0.02 | 72 | 1016.9 |
| 20260905095701 | 67 | 279 | 14.0 | 25.0 | 0.00 | 0.19 | 0.02 | 72 | 1016.8 |
| 20260905094201 | 67 | 278 | 13.0 | 18.0 | 0.00 | 0.25 | 0.02 | 72 | 1016.6 |
| 20260905093201 | 65 | 273 | 11.0 | 17.0 | 0.00 | 0.37 | 0.02 | 75 | 1016.4 |
| 20260905092701 | 66 | 277 | 11.0 | 20.0 | 0.00 | 0.38 | 0.02 | 74 | 1016.4 |
| 20260905092201 | 67 | 282 | 13.0 | 26.0 | 0.00 | 0.38 | 0.02 | 73 | 1016.4 |
| 20260905091702 | 68 | 284 | 10.0 | 20.0 | 0.00 | 0.39 | 0.02 | 72 | 1016.3 |
| 20260905090701 | 67 | 282 | 10.0 | 20.0 | 0.00 | 0.39 | 0.02 | 75 | 1016.2 |
| 20260905090202 | 67 | 273 | 6.0 | 14.0 | 0.00 | 0.39 | 0.02 | 76 | 1016.1 |
| 20260905085701 | 66 | 287 | 11.0 | 17.0 | 0.00 | 0.40 | 0.02 | 78 | 1016.0 |
| 20260905085201 | 64 | 251 | 10.0 | 17.0 | 0.00 | 0.40 | 0.02 | 80 | 1016.0 |
| 20260905084701 | 64 | 246 | 10.0 | 21.0 | 0.00 | 0.41 | 0.02 | 79 | 1015.9 |
| 20260905084201 | 64 | 259 | 10.0 | 17.0 | 0.00 | 0.42 | 0.02 | 79 | 1015.9 |
| 20260905083702 | 64 | 282 | 11.0 | 22.0 | 0.00 | 0.42 | 0.02 | 77 | 1015.8 |
| 20260905082701 | 65 | 290 | 12.0 | 24.0 | 0.00 | 0.43 | 0.02 | 79 | 1015.7 |
| 20260905082201 | 65 | 255 | 9.0 | 17.0 | 0.00 | 0.43 | 0.02 | 80 | 1015.4 |
| 20260905080702 | 64 | 256 | 10.0 | 21.0 | 0.00 | 0.44 | 0.02 | 83 | 1015.2 |
| 20260905080202 | 64 | 281 | 7.0 | 14.0 | 0.00 | 0.44 | 0.02 | 85 | 1015.2 |
| 20260905075702 | 63 | 275 | 10.0 | 18.0 | 0.00 | 0.44 | 0.02 | 86 | 1015.1 |
| 20260905075202 | 63 | 250 | 8.0 | 13.0 | 0.00 | 0.44 | 0.02 | 87 | 1015.1 |
| 20260905074702 | 63 | 241 | 8.0 | 16.0 | 0.00 | 0.44 | 0.02 | 89 | 1015.1 |
| 20260905074201 | 63 | 249 | 6.0 | 13.0 | 0.00 | 0.44 | 0.02 | 90 | 1015.0 |
| 20260905073202 | 62 | 268 | 6.0 | 12.0 | 0.00 | 0.44 | 0.02 | 91 | 1014.9 |
| 20260905072701 | 62 | 247 | 5.0 | 14.0 | 0.00 | 0.44 | 0.02 | 91 | 1014.7 |
| 20260905072202 | 62 | 239 | 6.0 | 12.0 | 0.00 | 0.44 | 0.02 | 91 | 1014.6 |
| 20260905071701 | 62 | 240 | 7.0 | 12.0 | 0.00 | 0.44 | 0.02 | 92 | 1014.6 |
| 20260905071202 | 62 | 250 | 8.0 | 14.0 | 0.00 | 0.44 | 0.02 | 92 | 1014.5 |
| 20260905070702 | 61 | 235 | 7.0 | 12.0 | 0.01 | 0.45 | 0.02 | 93 | 1014.5 |
| 20260905070201 | 61 | 246 | 6.0 | 10.0 | 0.01 | 0.45 | 0.02 | 93 | 1014.4 |
| 20260905065702 | 61 | 241 | 5.0 | 12.0 | 0.01 | 0.45 | 0.02 | 94 | 1014.4 |
| 20260905065202 | 60 | 245 | 6.0 | 12.0 | 0.01 | 0.45 | 0.02 | 94 | 1014.4 |
| 20260905064701 | 60 | 246 | 6.0 | 12.0 | 0.01 | 0.45 | 0.02 | 94 | 1014.4 |
| 20260905064201 | 60 | 238 | 6.0 | 10.0 | 0.01 | 0.45 | 0.02 | 94 | 1014.3 |
| 20260905063702 | 60 | 237 | 5.0 | 8.0 | 0.01 | 0.45 | 0.02 | 94 | 1014.3 |
| 20260905063202 | 60 | 241 | 4.0 | 7.0 | 0.01 | 0.45 | 0.02 | 94 | 1014.2 |
| 20260905062702 | 60 | 228 | 4.0 | 9.0 | 0.01 | 0.45 | 0.02 | 94 | 1014.2 |
| 20260905062201 | 60 | 245 | 5.0 | 8.0 | 0.01 | 0.45 | 0.02 | 94 | 1014.1 |
| 20260905061702 | 60 | 240 | 4.0 | 7.0 | 0.01 | 0.45 | 0.02 | 94 | 1014.2 |
| 20260905060702 | 59 | 235 | 3.0 | 5.0 | 0.00 | 0.44 | 0.01 | 94 | 1014.0 |
| 20260905060202 | 59 | 235 | 2.0 | 7.0 | 0.00 | 0.44 | 0.01 | 94 | 1013.9 |
| 20260905054702 | 59 | 246 | 3.0 | 7.0 | 0.00 | 0.44 | 0.01 | 94 | 1013.9 |
| 20260905054202 | 59 | 234 | 4.0 | 8.0 | 0.01 | 0.44 | 0.01 | 94 | 1013.9 |
| 20260905053702 | 59 | 219 | 3.0 | 8.0 | 0.01 | 0.44 | 0.01 | 94 | 1013.8 |
| 20260905053202 | 59 | 231 | 4.0 | 9.0 | 0.01 | 0.44 | 0.01 | 93 | 1013.8 |
| 20260905052702 | 59 | 233 | 5.0 | 9.0 | 0.01 | 0.44 | 0.01 | 93 | 1013.7 |
| 20260905052203 | 59 | 243 | 6.0 | 12.0 | 0.01 | 0.44 | 0.01 | 93 | 1013.8 |
| 20260905051701 | 59 | 237 | 3.0 | 6.0 | 0.01 | 0.44 | 0.01 | 93 | 1013.7 |
| 20260905051202 | 59 | 230 | 3.0 | 6.0 | 0.01 | 0.44 | 0.01 | 93 | 1013.7 |
| 20260905050202 | 59 | 245 | 5.0 | 12.0 | 0.01 | 0.44 | 0.01 | 92 | 1013.6 |
| 20260905045702 | 59 | 247 | 5.0 | 12.0 | 0.01 | 0.44 | 0.01 | 92 | 1013.5 |
| 20260905045202 | 59 | 251 | 6.0 | 12.0 | 0.01 | 0.44 | 0.01 | 92 | 1013.5 |
| 20260905044703 | 59 | 247 | 4.0 | 9.0 | 0.01 | 0.44 | 0.01 | 92 | 1013.5 |
| 20260905044202 | 59 | 246 | 3.0 | 7.0 | 0.00 | 0.43 | 0.00 | 92 | 1013.4 |
| 20260905043702 | 58 | 232 | 3.0 | 8.0 | 0.00 | 0.44 | 0.00 | 92 | 1013.4 |
| 20260905042702 | 58 | 233 | 3.0 | 8.0 | 0.00 | 0.44 | 0.00 | 92 | 1013.3 |
| 20260905042202 | 58 | 237 | 3.0 | 8.0 | 0.00 | 0.44 | 0.00 | 92 | 1013.3 |
| 20260905041702 | 58 | 244 | 5.0 | 8.0 | 0.00 | 0.45 | 0.00 | 92 | 1013.3 |
| 20260905041202 | 58 | 221 | 3.0 | 7.0 | 0.00 | 0.45 | 0.00 | 92 | 1013.2 |
| 20260905040703 | 57 | 233 | 3.0 | 6.0 | 0.00 | 0.45 | 0.00 | 92 | 1013.2 |
| 20260905040203 | 57 | 235 | 3.0 | 9.0 | 0.00 | 0.45 | 0.00 | 92 | 1013.2 |
| 20260905035702 | 57 | 236 | 3.0 | 7.0 | 0.00 | 0.45 | 0.00 | 92 | 1013.2 |
| 20260905035203 | 57 | 236 | 3.0 | 7.0 | 0.00 | 0.45 | 0.00 | 92 | 1013.2 |
| 20260905034202 | 56 | 226 | 3.0 | 6.0 | 0.00 | 0.46 | 0.00 | 92 | 1013.3 |
| 20260905033702 | 56 | 222 | 2.0 | 5.0 | 0.00 | 0.46 | 0.00 | 92 | 1013.2 |
| 20260905033203 | 56 | 223 | 2.0 | 5.0 | 0.00 | 0.50 | 0.00 | 92 | 1013.2 |
| 20260905032703 | 56 | 230 | 3.0 | 5.0 | 0.00 | 0.50 | 0.00 | 92 | 1013.2 |
| 20260905032202 | 56 | 229 | 2.0 | 5.0 | 0.00 | 0.50 | 0.00 | 92 | 1013.1 |
| 20260905031702 | 56 | 222 | 1.0 | 3.0 | 0.00 | 0.50 | 0.00 | 92 | 1013.1 |
| 20260905030702 | 56 | 217 | 1.0 | 6.0 | 0.00 | 0.50 | 0.00 | 92 | 1013.2 |
| 20260905030202 | 56 | 223 | 2.0 | 5.0 | 0.00 | 0.50 | 0.00 | 91 | 1013.2 |
| 20260905025702 | 56 | 216 | 2.0 | 3.0 | 0.00 | 0.50 | 0.00 | 91 | 1013.1 |
| 20260905025203 | 57 | 222 | 1.0 | 3.0 | 0.00 | 0.50 | 0.00 | 91 | 1013.1 |
| 20260905024703 | 57 | 215 | 1.0 | 2.0 | 0.00 | 0.50 | 0.00 | 91 | 1013.0 |
| 20260905024203 | 57 | 209 | 1.0 | 3.0 | 0.00 | 0.50 | 0.00 | 90 | 1013.0 |
| 20260905023703 | 57 | 212 | 1.0 | 2.0 | 0.00 | 0.50 | 0.00 | 90 | 1013.0 |
| 20260905022703 | 57 | 218 | 1.0 | 6.0 | 0.00 | 0.50 | 0.00 | 90 | 1012.9 |
| 20260905021703 | 58 | 218 | 2.0 | 3.0 | 0.00 | 0.50 | 0.00 | 89 | 1012.9 |
| 20260905021202 | 58 | 233 | 2.0 | 5.0 | 0.00 | 0.50 | 0.00 | 89 | 1012.9 |
| 20260905020704 | 58 | 216 | 2.0 | 5.0 | 0.00 | 0.50 | 0.00 | 89 | 1012.9 |
| 20260905020203 | 58 | 232 | 2.0 | 5.0 | 0.00 | 0.50 | 0.00 | 89 | 1012.9 |
| 20260905015702 | 58 | 237 | 3.0 | 5.0 | 0.00 | 0.50 | 0.00 | 89 | 1012.9 |
| 20260905014202 | 58 | 243 | 3.0 | 6.0 | 0.00 | 0.50 | 0.00 | 89 | 1012.7 |
| 20260905013703 | 58 | 239 | 3.0 | 6.0 | 0.00 | 0.50 | 0.00 | 89 | 1012.7 |
| 20260905013203 | 58 | 233 | 3.0 | 6.0 | 0.00 | 0.50 | 0.00 | 89 | 1012.7 |
| 20260905012703 | 58 | 240 | 3.0 | 6.0 | 0.00 | 0.50 | 0.00 | 89 | 1012.7 |
| 20260905012203 | 58 | 237 | 3.0 | 7.0 | 0.00 | 0.50 | 0.00 | 88 | 1012.7 |
| 20260905011703 | 58 | 239 | 3.0 | 7.0 | 0.00 | 0.50 | 0.00 | 88 | 1012.7 |
| 20260905011202 | 58 | 234 | 4.0 | 8.0 | 0.00 | 0.51 | 0.00 | 88 | 1012.7 |
| 20260905005703 | 59 | 236 | 3.0 | 5.0 | 0.00 | 0.51 | 0.00 | 87 | 1012.6 |
| 20260905005203 | 59 | 230 | 3.0 | 6.0 | 0.00 | 0.51 | 0.00 | 87 | 1012.6 |
| 20260905004703 | 59 | 241 | 3.0 | 5.0 | 0.00 | 0.51 | 0.00 | 86 | 1012.6 |
| 20260905004203 | 59 | 241 | 3.0 | 6.0 | 0.00 | 0.51 | 0.00 | 86 | 1012.6 |
| 20260905003703 | 59 | 233 | 3.0 | 8.0 | 0.00 | 0.52 | 0.00 | 86 | 1012.6 |
| 20260905003203 | 59 | 237 | 4.0 | 8.0 | 0.00 | 0.52 | 0.00 | 86 | 1012.6 |
| 20260905002704 | 59 | 233 | 5.0 | 8.0 | 0.00 | 0.52 | 0.00 | 85 | 1012.6 |
| 20260905001205 | 60 | 245 | 3.0 | 9.0 | 0.00 | 0.55 | 0.00 | 85 | 1012.5 |
| 20260904235703 | 60 | 251 | 4.0 | 10.0 | 0.00 | 0.55 | 0.00 | 84 | 1012.4 |
| 20260904235203 | 60 | 245 | 5.0 | 10.0 | 0.00 | 0.55 | 0.00 | 84 | 1012.4 |
| 20260904234704 | 60 | 257 | 5.0 | 10.0 | 0.00 | 0.55 | 0.00 | 84 | 1012.3 |
| 20260904234203 | 60 | 244 | 4.0 | 9.0 | 0.00 | 0.55 | 0.00 | 84 | 1012.3 |
| 20260904233704 | 60 | 241 | 4.0 | 8.0 | 0.00 | 0.55 | 0.00 | 84 | 1012.4 |
| 20260904233203 | 61 | 250 | 5.0 | 12.0 | 0.00 | 0.55 | 0.00 | 84 | 1012.4 |
| 20260904232703 | 61 | 246 | 5.0 | 10.0 | 0.00 | 0.55 | 0.00 | 83 | 1012.4 |
| 20260904232203 | 61 | 250 | 5.0 | 12.0 | 0.00 | 0.55 | 0.00 | 83 | 1012.4 |
| 20260904231703 | 61 | 259 | 6.0 | 12.0 | 0.00 | 0.55 | 0.00 | 84 | 1012.3 |
| 20260904231204 | 61 | 258 | 5.0 | 12.0 | 0.00 | 0.55 | 0.00 | 84 | 1012.3 |
| 20260904230703 | 61 | 259 | 3.0 | 7.0 | 0.00 | 0.55 | 0.00 | 84 | 1012.3 |
| 20260904225703 | 61 | 267 | 4.0 | 9.0 | 0.00 | 0.55 | 0.00 | 84 | 1012.2 |
| 20260904224703 | 61 | 260 | 5.0 | 9.0 | 0.00 | 0.55 | 0.00 | 85 | 1012.1 |
| 20260904224203 | 61 | 268 | 4.0 | 9.0 | 0.00 | 0.55 | 0.00 | 86 | 1012.1 |
| 20260904223704 | 61 | 267 | 4.0 | 9.0 | 0.00 | 0.55 | 0.00 | 86 | 1012.1 |
| 20260904223204 | 61 | 272 | 2.0 | 6.0 | 0.00 | 0.55 | 0.00 | 87 | 1012.1 |
| 20260904222703 | 61 | 270 | 3.0 | 8.0 | 0.00 | 0.55 | 0.00 | 87 | 1012.0 |
| 20260904222204 | 61 | 245 | 2.0 | 8.0 | 0.00 | 0.55 | 0.00 | 87 | 1012.0 |
| 20260904221703 | 61 | 263 | 3.0 | 8.0 | 0.00 | 0.55 | 0.00 | 87 | 1011.9 |
| 20260904221204 | 62 | 264 | 3.0 | 9.0 | 0.00 | 0.55 | 0.00 | 88 | 1011.9 |
| 20260904220704 | 62 | 247 | 5.0 | 10.0 | 0.00 | 0.55 | 0.00 | 88 | 1011.9 |
| 20260904220204 | 62 | 251 | 3.0 | 8.0 | 0.00 | 0.55 | 0.00 | 88 | 1011.9 |
| 20260904215704 | 61 | 261 | 5.0 | 10.0 | 0.00 | 0.55 | 0.55 | 88 | 1011.8 |
| 20260904215204 | 61 | 257 | 4.0 | 10.0 | 0.00 | 0.55 | 0.55 | 88 | 1011.7 |
| 20260904214703 | 61 | 251 | 6.0 | 10.0 | 0.00 | 0.55 | 0.55 | 88 | 1011.7 |
| 20260904214203 | 61 | 240 | 6.0 | 10.0 | 0.00 | 0.55 | 0.55 | 88 | 1011.6 |
| 20260904213704 | 61 | 249 | 5.0 | 12.0 | 0.00 | 0.55 | 0.55 | 88 | 1011.6 |
| 20260904213203 | 61 | 250 | 4.0 | 8.0 | 0.00 | 0.55 | 0.55 | 88 | 1011.6 |
| 20260904212704 | 62 | 244 | 5.0 | 10.0 | 0.00 | 0.55 | 0.55 | 87 | 1011.5 |
| 20260904211704 | 62 | 243 | 4.0 | 10.0 | 0.00 | 0.55 | 0.55 | 87 | 1011.6 |
| 20260904211203 | 62 | 240 | 5.0 | 10.0 | 0.00 | 0.55 | 0.55 | 87 | 1011.5 |
| 20260904210204 | 62 | 249 | 5.0 | 8.0 | 0.00 | 0.55 | 0.55 | 87 | 1011.5 |
| 20260904205204 | 62 | 244 | 5.0 | 10.0 | 0.00 | 0.55 | 0.55 | 86 | 1011.4 |
| 20260904204704 | 62 | 236 | 6.0 | 12.0 | 0.00 | 0.55 | 0.55 | 85 | 1011.4 |
| 20260904203704 | 62 | 250 | 4.0 | 10.0 | 0.00 | 0.55 | 0.55 | 85 | 1011.3 |
| 20260904203203 | 62 | 242 | 6.0 | 9.0 | 0.00 | 0.55 | 0.55 | 84 | 1011.3 |
| 20260904202704 | 62 | 238 | 5.0 | 10.0 | 0.00 | 0.55 | 0.55 | 84 | 1011.4 |
| 20260904202204 | 62 | 239 | 5.0 | 13.0 | 0.00 | 0.55 | 0.55 | 84 | 1011.3 |
| 20260904201704 | 62 | 244 | 6.0 | 12.0 | 0.00 | 0.55 | 0.55 | 84 | 1011.3 |
| 20260904201204 | 62 | 257 | 7.0 | 12.0 | 0.00 | 0.55 | 0.55 | 84 | 1011.3 |
| 20260904195704 | 62 | 276 | 6.0 | 13.0 | 0.00 | 0.55 | 0.55 | 84 | 1011.1 |
| 20260904194704 | 62 | 250 | 5.0 | 9.0 | 0.00 | 0.55 | 0.55 | 85 | 1011.0 |
| 20260904194204 | 62 | 254 | 5.0 | 12.0 | 0.00 | 0.55 | 0.55 | 85 | 1011.0 |
| 20260904193703 | 62 | 256 | 6.0 | 10.0 | 0.00 | 0.55 | 0.55 | 85 | 1011.0 |
| 20260904193204 | 62 | 259 | 4.0 | 12.0 | 0.00 | 0.55 | 0.55 | 84 | 1010.9 |
| 20260904192702 | 62 | 255 | 6.0 | 12.0 | 0.00 | 0.55 | 0.55 | 84 | 1010.8 |
| 20260904192202 | 62 | 248 | 6.0 | 13.0 | 0.00 | 0.55 | 0.55 | 84 | 1010.8 |
| 20260904191702 | 62 | 256 | 6.0 | 12.0 | 0.00 | 0.55 | 0.55 | 84 | 1010.7 |
| 20260904191202 | 62 | 251 | 7.0 | 14.0 | 0.00 | 0.55 | 0.55 | 84 | 1010.6 |
| 20260904185702 | 62 | 255 | 6.0 | 13.0 | 0.00 | 0.55 | 0.55 | 84 | 1010.4 |
| 20260904185202 | 62 | 235 | 7.0 | 12.0 | 0.00 | 0.55 | 0.55 | 84 | 1010.4 |
| 20260904184702 | 63 | 249 | 6.0 | 12.0 | 0.00 | 0.55 | 0.55 | 84 | 1010.3 |
| 20260904183702 | 63 | 254 | 5.0 | 12.0 | 0.00 | 0.55 | 0.55 | 84 | 1010.3 |
| 20260904183202 | 63 | 254 | 4.0 | 14.0 | 0.00 | 0.55 | 0.55 | 84 | 1010.1 |
| 20260904182702 | 63 | 265 | 7.0 | 13.0 | 0.00 | 0.55 | 0.55 | 84 | 1010.0 |
| 20260904182202 | 63 | 267 | 7.0 | 17.0 | 0.00 | 0.55 | 0.55 | 84 | 1010.0 |
| 20260904181703 | 63 | 251 | 6.0 | 12.0 | 0.00 | 0.55 | 0.55 | 83 | 1010.0 |
| 20260904180702 | 63 | 252 | 7.0 | 15.0 | 0.00 | 0.55 | 0.55 | 83 | 1009.9 |
| 20260904180203 | 63 | 269 | 7.0 | 15.0 | 0.00 | 0.55 | 0.55 | 83 | 1009.9 |
| 20260904175702 | 63 | 267 | 7.0 | 14.0 | 0.00 | 0.55 | 0.55 | 83 | 1009.8 |
| 20260904174703 | 64 | 270 | 7.0 | 17.0 | 0.00 | 0.55 | 0.55 | 83 | 1009.7 |
| 20260904174203 | 64 | 284 | 10.0 | 14.0 | 0.00 | 0.55 | 0.55 | 83 | 1009.7 |
| 20260904173703 | 64 | 262 | 7.0 | 14.0 | 0.00 | 0.55 | 0.55 | 83 | 1009.6 |
| 20260904173202 | 64 | 254 | 9.0 | 13.0 | 0.00 | 0.55 | 0.55 | 83 | 1009.5 |
| 20260904172703 | 64 | 256 | 9.0 | 20.0 | 0.00 | 0.55 | 0.55 | 83 | 1009.4 |
| 20260904172203 | 64 | 261 | 8.0 | 15.0 | 0.00 | 0.55 | 0.55 | 82 | 1009.4 |
| 20260904171702 | 64 | 256 | 9.0 | 20.0 | 0.00 | 0.55 | 0.55 | 82 | 1009.4 |
| 20260904171203 | 64 | 256 | 11.0 | 20.0 | 0.00 | 0.55 | 0.55 | 81 | 1009.2 |
| 20260904170703 | 64 | 270 | 9.0 | 17.0 | 0.00 | 0.55 | 0.55 | 82 | 1009.3 |
| 20260904170202 | 64 | 264 | 6.0 | 16.0 | 0.00 | 0.55 | 0.55 | 82 | 1009.2 |
| 20260904165203 | 64 | 259 | 8.0 | 13.0 | 0.00 | 0.55 | 0.55 | 84 | 1009.0 |
| 20260904164704 | 65 | 247 | 6.0 | 12.0 | 0.00 | 0.55 | 0.55 | 85 | 1009.0 |
| 20260904164204 | 65 | 285 | 8.0 | 15.0 | 0.00 | 0.55 | 0.55 | 85 | 1009.0 |
| 20260904163705 | 65 | 266 | 7.0 | 15.0 | 0.00 | 0.55 | 0.55 | 86 | 1008.8 |
| 20260904163203 | 65 | 239 | 7.0 | 12.0 | 0.00 | 0.55 | 0.55 | 86 | 1008.8 |